Wetterdaten: Donnerstag, 13.11.2014
Datum Zeit Temp. A. Feuchte A. Luftdruck Regen Wind Richtung Richtung Sonnenschein ET UV Solar Taupunkt Windchill Windben Empfang
13.11.2014 00:00 8,6 C 84 % 1005,5 hPa 0,0 l/m 0,7 km/h (0 Bft) NW 314 0 min 0,000 mm 0,0 UV-I 0 W/m 6,1 C 8,6 C 4,0 km/h (1 Bft) 0,00 %
13.11.2014 00:15 8,6 C 84 % 1005,7 hPa 0,0 l/m 0,0 km/h (0 Bft) W-SW 256 0 min 0,000 mm 0,0 UV-I 0 W/m 6,1 C 8,6 C 0,0 km/h (0 Bft) 0,00 %
13.11.2014 00:30 8,6 C 84 % 1006,0 hPa 0,0 l/m 1,4 km/h (1 Bft) W-SW 255 0 min 0,000 mm 0,0 UV-I 0 W/m 6,1 C 8,6 C 4,0 km/h (1 Bft) 0,00 %
13.11.2014 00:45 8,4 C 84 % 1006,2 hPa 0,0 l/m 0,4 km/h (0 Bft) S 174 0 min 0,000 mm 0,0 UV-I 0 W/m 5,9 C 8,4 C 4,0 km/h (1 Bft) 0,00 %
13.11.2014 01:00 8,2 C 83 % 1006,6 hPa 0,0 l/m 0,4 km/h (0 Bft) W-SW 253 0 min 0,000 mm 0,0 UV-I 0 W/m 5,5 C 8,2 C 4,0 km/h (1 Bft) 0,00 %
13.11.2014 01:15 8,2 C 82 % 1006,8 hPa 0,0 l/m 0,4 km/h (0 Bft) S 173 0 min 0,000 mm 0,0 UV-I 0 W/m 5,3 C 8,2 C 4,0 km/h (1 Bft) 0,00 %
13.11.2014 01:30 8,1 C 82 % 1007,1 hPa 0,0 l/m 2,2 km/h (1 Bft) W-SW 255 0 min 0,000 mm 0,0 UV-I 0 W/m 5,2 C 8,1 C 4,0 km/h (1 Bft) 0,00 %
13.11.2014 01:45 8,1 C 82 % 1007,3 hPa 0,0 l/m 0,4 km/h (0 Bft) W-SW 252 0 min 0,000 mm 0,0 UV-I 0 W/m 5,2 C 8,1 C 4,0 km/h (1 Bft) 0,00 %
13.11.2014 02:00 8,1 C 82 % 1007,2 hPa 0,0 l/m 1,4 km/h (1 Bft) W-SW 253 0 min 0,000 mm 0,0 UV-I 0 W/m 5,2 C 8,1 C 7,9 km/h (2 Bft) 0,00 %
13.11.2014 02:15 8,1 C 82 % 1007,3 hPa 0,0 l/m 2,2 km/h (1 Bft) W 272 0 min 0,000 mm 0,0 UV-I 0 W/m 5,2 C 8,1 C 7,9 km/h (2 Bft) 0,00 %
13.11.2014 02:30 8,3 C 81 % 1007,4 hPa 0,0 l/m 0,0 km/h (0 Bft) S-SW 208 0 min 0,000 mm 0,0 UV-I 0 W/m 5,2 C 8,3 C 0,0 km/h (0 Bft) 0,00 %
13.11.2014 02:45 8,3 C 80 % 1007,4 hPa 0,0 l/m 0,0 km/h (0 Bft) W-SW 251 0 min 0,000 mm 0,0 UV-I 0 W/m 5,1 C 8,3 C 0,0 km/h (0 Bft) 0,00 %
13.11.2014 03:00 8,4 C 81 % 1007,6 hPa 0,0 l/m 1,8 km/h (1 Bft) W-SW 256 0 min 0,000 mm 0,0 UV-I 0 W/m 5,3 C 8,4 C 4,0 km/h (1 Bft) 0,00 %
13.11.2014 03:15 8,4 C 79 % 1007,6 hPa 0,0 l/m 0,0 km/h (0 Bft) SW 230 0 min 0,000 mm 0,0 UV-I 0 W/m 5,0 C 8,4 C 0,0 km/h (0 Bft) 0,00 %
13.11.2014 03:30 8,5 C 79 % 1007,9 hPa 0,0 l/m 0,0 km/h (0 Bft) W-SW 251 0 min 0,000 mm 0,0 UV-I 0 W/m 5,1 C 8,5 C 0,0 km/h (0 Bft) 0,00 %
13.11.2014 03:45 8,4 C 80 % 1008,0 hPa 0,0 l/m 0,0 km/h (0 Bft) W-SW 256 0 min 0,000 mm 0,0 UV-I 0 W/m 5,2 C 8,4 C 0,0 km/h (0 Bft) 0,00 %
13.11.2014 04:00 8,3 C 81 % 1007,9 hPa 0,0 l/m 0,0 km/h (0 Bft) S-SW 210 0 min 0,000 mm 0,0 UV-I 0 W/m 5,2 C 8,3 C 0,0 km/h (0 Bft) 0,00 %
13.11.2014 04:15 8,3 C 81 % 1008,2 hPa 0,0 l/m 0,7 km/h (0 Bft) W-SW 248 0 min 0,000 mm 0,0 UV-I 0 W/m 5,2 C 8,3 C 4,0 km/h (1 Bft) 0,00 %
13.11.2014 04:30 8,4 C 81 % 1008,2 hPa 0,0 l/m 0,4 km/h (0 Bft) W-SW 256 0 min 0,000 mm 0,0 UV-I 0 W/m 5,3 C 8,4 C 4,0 km/h (1 Bft) 0,00 %
13.11.2014 04:45 8,4 C 80 % 1008,3 hPa 0,0 l/m 0,0 km/h (0 Bft) SW 214 0 min 0,000 mm 0,0 UV-I 0 W/m 5,2 C 8,4 C 0,0 km/h (0 Bft) 0,00 %
13.11.2014 05:00 8,4 C 80 % 1008,4 hPa 0,0 l/m 0,0 km/h (0 Bft) S 182 0 min 0,000 mm 0,0 UV-I 0 W/m 5,2 C 8,4 C 0,0 km/h (0 Bft) 0,00 %
13.11.2014 05:15 8,4 C 80 % 1009,0 hPa 0,0 l/m 0,0 km/h (0 Bft) S 179 0 min 0,000 mm 0,0 UV-I 0 W/m 5,2 C 8,4 C 0,0 km/h (0 Bft) 0,00 %
13.11.2014 05:30 8,4 C 80 % 1009,0 hPa 0,0 l/m 0,0 km/h (0 Bft) S 182 0 min 0,000 mm 0,0 UV-I 0 W/m 5,2 C 8,4 C 0,0 km/h (0 Bft) 0,00 %
13.11.2014 05:45 8,4 C 81 % 1009,0 hPa 0,0 l/m 0,0 km/h (0 Bft) SW 229 0 min 0,000 mm 0,0 UV-I 0 W/m 5,3 C 8,4 C 0,0 km/h (0 Bft) 0,00 %
13.11.2014 06:00 8,3 C 81 % 1009,2 hPa 0,0 l/m 0,0 km/h (0 Bft) S 186 0 min 0,000 mm 0,0 UV-I 0 W/m 5,2 C 8,3 C 0,0 km/h (0 Bft) 0,00 %
13.11.2014 06:15 8,3 C 81 % 1009,1 hPa 0,0 l/m 0,0 km/h (0 Bft) SW 230 0 min 0,000 mm 0,0 UV-I 0 W/m 5,2 C 8,3 C 0,0 km/h (0 Bft) 0,00 %
13.11.2014 06:30 8,3 C 81 % 1009,3 hPa 0,0 l/m 0,0 km/h (0 Bft) SW 232 0 min 0,000 mm 0,0 UV-I 0 W/m 5,2 C 8,3 C 0,0 km/h (0 Bft) 0,00 %
13.11.2014 06:45 8,2 C 81 % 1009,5 hPa 0,0 l/m 0,0 km/h (0 Bft) SW 232 0 min 0,000 mm 0,0 UV-I 0 W/m 5,1 C 8,2 C 0,0 km/h (0 Bft) 0,00 %
13.11.2014 07:00 8,2 C 82 % 1009,7 hPa 0,0 l/m 0,0 km/h (0 Bft) W-SW 255 0 min 0,000 mm 0,0 UV-I 0 W/m 5,3 C 8,2 C 0,0 km/h (0 Bft) 0,00 %
13.11.2014 07:15 8,2 C 82 % 1009,9 hPa 0,0 l/m 0,0 km/h (0 Bft) S-SW 211 0 min 0,000 mm 0,0 UV-I 0 W/m 5,3 C 8,2 C 0,0 km/h (0 Bft) 0,00 %
13.11.2014 07:30 8,2 C 82 % 1010,0 hPa 0,0 l/m 0,0 km/h (0 Bft) S-SW 200 0 min 0,000 mm 0,0 UV-I 0 W/m 5,3 C 8,2 C 0,0 km/h (0 Bft) 0,00 %
13.11.2014 07:45 8,2 C 82 % 1010,3 hPa 0,0 l/m 0,0 km/h (0 Bft) W-SW 256 0 min 0,000 mm 0,0 UV-I 3 W/m 5,3 C 8,2 C 0,0 km/h (0 Bft) 0,00 %
13.11.2014 08:00 8,4 C 81 % 1010,4 hPa 0,0 l/m 0,0 km/h (0 Bft) S-SW 193 0 min 0,000 mm 0,0 UV-I 3 W/m 5,3 C 8,4 C 0,0 km/h (0 Bft) 0,00 %
13.11.2014 08:15 8,5 C 81 % 1010,5 hPa 0,0 l/m 0,0 km/h (0 Bft) S-SW 193 0 min 0,000 mm 0,0 UV-I 35 W/m 5,4 C 8,5 C 0,0 km/h (0 Bft) 0,00 %
13.11.2014 08:30 8,7 C 81 % 1010,5 hPa 0,0 l/m 0,0 km/h (0 Bft) S-SW 193 0 min 0,000 mm 0,0 UV-I 56 W/m 5,6 C 8,7 C 0,0 km/h (0 Bft) 0,00 %
13.11.2014 08:45 8,9 C 81 % 1010,5 hPa 0,0 l/m 0,0 km/h (0 Bft) S-SW 193 0 min 0,000 mm 0,0 UV-I 45 W/m 5,8 C 8,9 C 0,0 km/h (0 Bft) 0,00 %
13.11.2014 09:00 8,9 C 82 % 1010,7 hPa 0,3 l/m 0,0 km/h (0 Bft) W-SW 256 0 min 0,000 mm 1,0 UV-I 88 W/m 6,0 C 8,9 C 0,0 km/h (0 Bft) 0,00 %
13.11.2014 09:15 9,0 C 81 % 1010,6 hPa 0,0 l/m 0,0 km/h (0 Bft) SW 214 0 min 0,000 mm 1,0 UV-I 88 W/m 5,9 C 9,0 C 0,0 km/h (0 Bft) 0,00 %
13.11.2014 09:30 9,3 C 81 % 1010,8 hPa 0,0 l/m 0,0 km/h (0 Bft) SW 227 0 min 0,000 mm 1,0 UV-I 90 W/m 6,2 C 9,3 C 0,0 km/h (0 Bft) 0,00 %
13.11.2014 09:45 9,4 C 79 % 1010,8 hPa 0,0 l/m 0,0 km/h (0 Bft) W-SW 254 0 min 0,000 mm 1,0 UV-I 111 W/m 5,9 C 9,4 C 0,0 km/h (0 Bft) 0,00 %
13.11.2014 10:00 9,5 C 79 % 1010,8 hPa 0,0 l/m 0,0 km/h (0 Bft) W-SW 252 0 min 0,000 mm 1,0 UV-I 99 W/m 6,0 C 9,5 C 0,0 km/h (0 Bft) 0,00 %
13.11.2014 10:15 9,9 C 76 % 1010,8 hPa 0,0 l/m 0,0 km/h (0 Bft) W-SW 255 0 min 0,000 mm 2,0 UV-I 90 W/m 5,9 C 9,9 C 0,0 km/h (0 Bft) 0,00 %
13.11.2014 10:30 10,1 C 75 % 1011,0 hPa 0,0 l/m 0,0 km/h (0 Bft) W-SW 252 0 min 0,000 mm 1,0 UV-I 88 W/m 5,9 C 10,1 C 0,0 km/h (0 Bft) 0,00 %
13.11.2014 10:45 10,1 C 74 % 1010,9 hPa 0,0 l/m 0,0 km/h (0 Bft) W-NW 288 0 min 0,000 mm 2,0 UV-I 99 W/m 5,7 C 10,1 C 0,0 km/h (0 Bft) 0,00 %
13.11.2014 11:00 10,3 C 73 % 1010,6 hPa 0,0 l/m 0,0 km/h (0 Bft) W-SW 251 0 min 0,000 mm 2,0 UV-I 100 W/m 5,7 C 10,3 C 0,0 km/h (0 Bft) 0,00 %
13.11.2014 11:15 10,2 C 74 % 1011,0 hPa 0,0 l/m 0,0 km/h (0 Bft) W-NW 287 0 min 0,000 mm 1,0 UV-I 106 W/m 5,8 C 10,2 C 0,0 km/h (0 Bft) 0,00 %
13.11.2014 11:30 10,4 C 72 % 1010,8 hPa 0,0 l/m 0,0 km/h (0 Bft) S 178 0 min 0,000 mm 1,0 UV-I 119 W/m 5,6 C 10,4 C 0,0 km/h (0 Bft) 0,00 %
13.11.2014 11:45 10,3 C 72 % 1010,6 hPa 0,0 l/m 0,0 km/h (0 Bft) N-NW 343 0 min 0,000 mm 2,0 UV-I 134 W/m 5,5 C 10,3 C 0,0 km/h (0 Bft) 0,00 %
13.11.2014 12:00 10,7 C 71 % 1010,5 hPa 0,0 l/m 0,0 km/h (0 Bft) W-SW 256 0 min 0,000 mm 2,0 UV-I 145 W/m 5,7 C 10,7 C 0,0 km/h (0 Bft) 0,00 %
13.11.2014 12:15 11,0 C 70 % 1010,5 hPa 0,0 l/m 0,0 km/h (0 Bft) NW 304 0 min 0,000 mm 2,0 UV-I 155 W/m 5,7 C 11,0 C 0,0 km/h (0 Bft) 0,00 %
13.11.2014 12:30 11,0 C 70 % 1010,4 hPa 0,0 l/m 0,0 km/h (0 Bft) O-SO 115 0 min 0,000 mm 2,0 UV-I 130 W/m 5,7 C 11,0 C 0,0 km/h (0 Bft) 0,00 %
13.11.2014 12:45 11,3 C 69 % 1010,4 hPa 0,0 l/m 0,0 km/h (0 Bft) W-SW 251 0 min 0,000 mm 2,0 UV-I 125 W/m 5,8 C 11,3 C 0,0 km/h (0 Bft) 0,00 %
13.11.2014 13:00 10,9 C 71 % 1010,4 hPa 0,0 l/m 0,0 km/h (0 Bft) N-NO 25 0 min 0,000 mm 1,0 UV-I 120 W/m 5,9 C 10,9 C 0,0 km/h (0 Bft) 0,00 %
13.11.2014 13:15 10,4 C 71 % 1010,6 hPa 0,0 l/m 0,4 km/h (0 Bft) W-SW 256 0 min 0,000 mm 1,0 UV-I 115 W/m 5,4 C 10,4 C 4,0 km/h (1 Bft) 0,00 %
13.11.2014 13:30 10,8 C 71 % 1010,9 hPa 0,0 l/m 0,0 km/h (0 Bft) O 101 0 min 0,000 mm 2,0 UV-I 110 W/m 5,8 C 10,8 C 0,0 km/h (0 Bft) 0,00 %
13.11.2014 13:45 10,9 C 71 % 1010,7 hPa 0,0 l/m 0,0 km/h (0 Bft) N-NW 347 0 min 0,000 mm 2,0 UV-I 105 W/m 5,9 C 10,9 C 0,0 km/h (0 Bft) 0,00 %
13.11.2014 14:00 10,8 C 71 % 1010,7 hPa 0,0 l/m 0,4 km/h (0 Bft) O-NO 71 0 min 0,000 mm 1,0 UV-I 100 W/m 5,8 C 10,8 C 4,0 km/h (1 Bft) 0,00 %
13.11.2014 14:15 10,5 C 71 % 1010,8 hPa 0,0 l/m 0,0 km/h (0 Bft) N-NW 332 0 min 0,000 mm 1,0 UV-I 80 W/m 5,5 C 10,5 C 0,0 km/h (0 Bft) 0,00 %
13.11.2014 14:30 10,5 C 72 % 1011,0 hPa 0,0 l/m 0,0 km/h (0 Bft) N 2 0 min 0,000 mm 1,0 UV-I 70 W/m 5,7 C 10,5 C 0,0 km/h (0 Bft) 0,00 %
13.11.2014 14:45 10,3 C 73 % 1011,1 hPa 0,0 l/m 0,0 km/h (0 Bft) NO 44 0 min 0,000 mm 1,0 UV-I 67 W/m 5,7 C 10,3 C 0,0 km/h (0 Bft) 0,00 %
13.11.2014 15:00 10,2 C 72 % 1011,3 hPa 0,0 l/m 0,0 km/h (0 Bft) W-NW 290 0 min 0,000 mm 1,0 UV-I 56 W/m 5,4 C 10,2 C 0,0 km/h (0 Bft) 0,00 %
13.11.2014 15:15 10,2 C 75 % 1011,5 hPa 0,0 l/m 0,0 km/h (0 Bft) W-NW 290 0 min 0,000 mm 0,0 UV-I 45 W/m 6,0 C 10,2 C 0,0 km/h (0 Bft) 0,00 %
13.11.2014 15:30 10,2 C 73 % 1011,4 hPa 0,0 l/m 0,0 km/h (0 Bft) W-NW 290 0 min 0,000 mm 0,0 UV-I 34 W/m 5,6 C 10,2 C 0,0 km/h (0 Bft) 0,00 %
13.11.2014 15:45 10,1 C 73 % 1011,6 hPa 0,0 l/m 0,0 km/h (0 Bft) W-NW 290 0 min 0,000 mm 0,0 UV-I 23 W/m 5,5 C 10,1 C 0,0 km/h (0 Bft) 0,00 %
13.11.2014 16:00 10,0 C 73 % 1011,8 hPa 0,0 l/m 0,0 km/h (0 Bft) W-NW 290 0 min 0,000 mm 0,0 UV-I 1 W/m 5,4 C 10,0 C 0,0 km/h (0 Bft) 0,00 %
13.11.2014 16:15 9,9 C 74 % 1011,9 hPa 0,0 l/m 0,0 km/h (0 Bft) W-NW 290 0 min 0,000 mm 0,0 UV-I 0 W/m 5,5 C 9,9 C 0,0 km/h (0 Bft) 0,00 %
13.11.2014 16:30 9,8 C 74 % 1012,1 hPa 0,0 l/m 0,0 km/h (0 Bft) W-NW 290 0 min 0,000 mm 0,0 UV-I 0 W/m 5,4 C 9,8 C 0,0 km/h (0 Bft) 0,00 %
13.11.2014 16:45 9,7 C 75 % 1012,0 hPa 0,0 l/m 0,0 km/h (0 Bft) W-NW 290 0 min 0,000 mm 0,0 UV-I 0 W/m 5,5 C 9,7 C 0,0 km/h (0 Bft) 0,00 %
13.11.2014 17:00 9,5 C 77 % 1012,1 hPa 0,0 l/m 0,0 km/h (0 Bft) W-NW 290 0 min 0,000 mm 0,0 UV-I 0 W/m 5,7 C 9,5 C 0,0 km/h (0 Bft) 0,00 %
13.11.2014 17:15 9,3 C 78 % 1012,4 hPa 0,0 l/m 0,0 km/h (0 Bft) W-NW 290 0 min 0,000 mm 0,0 UV-I 0 W/m 5,7 C 9,3 C 0,0 km/h (0 Bft) 0,00 %
13.11.2014 17:30 9,1 C 79 % 1012,5 hPa 0,0 l/m 0,0 km/h (0 Bft) S-SW 202 0 min 0,000 mm 0,0 UV-I 0 W/m 5,7 C 9,1 C 0,0 km/h (0 Bft) 0,00 %
13.11.2014 17:45 9,1 C 79 % 1012,6 hPa 0,0 l/m 0,0 km/h (0 Bft) S-SW 202 0 min 0,000 mm 0,0 UV-I 0 W/m 5,7 C 9,1 C 0,0 km/h (0 Bft) 0,00 %
13.11.2014 18:00 9,1 C 79 % 1012,5 hPa 0,0 l/m 0,0 km/h (0 Bft) S-SW 202 0 min 0,000 mm 0,0 UV-I 0 W/m 5,7 C 9,1 C 0,0 km/h (0 Bft) 0,00 %
13.11.2014 18:15 9,1 C 79 % 1012,7 hPa 0,0 l/m 0,0 km/h (0 Bft) S-SW 202 0 min 0,000 mm 0,0 UV-I 0 W/m 5,7 C 9,1 C 0,0 km/h (0 Bft) 0,00 %
13.11.2014 18:30 9,0 C 79 % 1012,5 hPa 0,0 l/m 0,0 km/h (0 Bft) S 174 0 min 0,000 mm 0,0 UV-I 0 W/m 5,6 C 9,0 C 0,0 km/h (0 Bft) 0,00 %
13.11.2014 18:45 9,0 C 79 % 1012,6 hPa 0,0 l/m 0,0 km/h (0 Bft) S 174 0 min 0,000 mm 0,0 UV-I 0 W/m 5,6 C 9,0 C 0,0 km/h (0 Bft) 0,00 %
13.11.2014 19:00 8,9 C 80 % 1012,8 hPa 0,0 l/m 0,0 km/h (0 Bft) S 174 0 min 0,000 mm 0,0 UV-I 0 W/m 5,6 C 8,9 C 0,0 km/h (0 Bft) 0,00 %
13.11.2014 19:15 8,8 C 81 % 1012,8 hPa 0,0 l/m 0,0 km/h (0 Bft) S 174 0 min 0,000 mm 0,0 UV-I 0 W/m 5,7 C 8,8 C 0,0 km/h (0 Bft) 0,00 %
13.11.2014 19:30 8,7 C 82 % 1012,7 hPa 0,0 l/m 0,0 km/h (0 Bft) S 174 0 min 0,000 mm 0,0 UV-I 0 W/m 5,8 C 8,7 C 0,0 km/h (0 Bft) 0,00 %
13.11.2014 19:45 8,6 C 82 % 1012,6 hPa 0,0 l/m 0,0 km/h (0 Bft) S 174 0 min 0,000 mm 0,0 UV-I 0 W/m 5,7 C 8,6 C 0,0 km/h (0 Bft) 0,00 %
13.11.2014 20:00 8,5 C 82 % 1012,7 hPa 0,0 l/m 0,0 km/h (0 Bft) S 174 0 min 0,000 mm 0,0 UV-I 0 W/m 5,6 C 8,5 C 0,0 km/h (0 Bft) 0,00 %
13.11.2014 20:15 8,5 C 82 % 1012,7 hPa 0,0 l/m 0,0 km/h (0 Bft) O-SO 112 0 min 0,000 mm 0,0 UV-I 0 W/m 5,6 C 8,5 C 0,0 km/h (0 Bft) 0,00 %
13.11.2014 20:30 8,5 C 83 % 1012,7 hPa 0,0 l/m 0,0 km/h (0 Bft) O-SO 114 0 min 0,000 mm 0,0 UV-I 0 W/m 5,8 C 8,5 C 0,0 km/h (0 Bft) 0,00 %
13.11.2014 20:45 8,4 C 83 % 1012,7 hPa 0,0 l/m 0,0 km/h (0 Bft) O-SO 117 0 min 0,000 mm 0,0 UV-I 0 W/m 5,7 C 8,4 C 0,0 km/h (0 Bft) 0,00 %
13.11.2014 21:00 8,3 C 83 % 1012,8 hPa 0,0 l/m 0,0 km/h (0 Bft) O-SO 117 0 min 0,000 mm 0,0 UV-I 0 W/m 5,6 C 8,3 C 0,0 km/h (0 Bft) 0,00 %
13.11.2014 21:15 8,0 C 83 % 1012,9 hPa 0,0 l/m 0,0 km/h (0 Bft) S 173 0 min 0,000 mm 0,0 UV-I 0 W/m 5,3 C 8,0 C 0,0 km/h (0 Bft) 0,00 %
13.11.2014 21:30 7,7 C 83 % 1012,9 hPa 0,0 l/m 0,0 km/h (0 Bft) S-SW 193 0 min 0,000 mm 0,0 UV-I 0 W/m 5,0 C 7,7 C 0,0 km/h (0 Bft) 0,00 %
13.11.2014 21:45 7,3 C 83 % 1012,9 hPa 0,0 l/m 0,0 km/h (0 Bft) SW 216 0 min 0,000 mm 0,0 UV-I 0 W/m 4,6 C 7,3 C 0,0 km/h (0 Bft) 0,00 %
13.11.2014 22:00 7,0 C 84 % 1012,9 hPa 0,0 l/m 0,0 km/h (0 Bft) S-SW 193 0 min 0,000 mm 0,0 UV-I 0 W/m 4,5 C 7,0 C 0,0 km/h (0 Bft) 0,00 %
13.11.2014 22:15 6,9 C 84 % 1013,0 hPa 0,0 l/m 0,0 km/h (0 Bft) SW 224 0 min 0,000 mm 0,0 UV-I 0 W/m 4,4 C 6,9 C 0,0 km/h (0 Bft) 0,00 %
13.11.2014 22:30 6,7 C 84 % 1013,1 hPa 0,0 l/m 0,0 km/h (0 Bft) S 182 0 min 0,000 mm 0,0 UV-I 0 W/m 4,2 C 6,7 C 0,0 km/h (0 Bft) 0,00 %
13.11.2014 22:45 6,7 C 84 % 1013,2 hPa 0,0 l/m 0,0 km/h (0 Bft) S-SO 156 0 min 0,000 mm 0,0 UV-I 0 W/m 4,2 C 6,7 C 0,0 km/h (0 Bft) 0,00 %
13.11.2014 23:00 6,7 C 84 % 1013,0 hPa 0,0 l/m 0,0 km/h (0 Bft) S 180 0 min 0,000 mm 0,0 UV-I 0 W/m 4,2 C 6,7 C 0,0 km/h (0 Bft) 0,00 %
13.11.2014 23:15 6,6 C 84 % 1013,1 hPa 0,0 l/m 0,0 km/h (0 Bft) SW 230 0 min 0,000 mm 0,0 UV-I 0 W/m 4,1 C 6,6 C 0,0 km/h (0 Bft) 0,00 %
13.11.2014 23:30 6,4 C 85 % 1013,4 hPa 0,0 l/m 0,0 km/h (0 Bft) S 187 0 min 0,000 mm 0,0 UV-I 0 W/m 4,1 C 6,4 C 0,0 km/h (0 Bft) 0,00 %
13.11.2014 23:45 6,3 C 85 % 1013,5 hPa 0,0 l/m 0,0 km/h (0 Bft) SW 234 0 min 0,000 mm 0,0 UV-I 0 W/m 4,0 C 6,3 C 0,0 km/h (0 Bft) 0,00 %
_ Min-Zeit 23:45 12:45 00:00 - 00:15 - - - - - - 23:45 23:45 00:15 00:00
Minimum _ 6,3 C 69 % 1005,5 hPa - 0,0 km/h (0 Bft) - - - - - - 4,0 C 6,3 C 0,0 km/h (0 Bft) 0,00 %
_ Max-Zeit 12:45 23:30 23:45 09:00 01:30 - - 00:00 00:00 10:15 12:15 09:30 12:45 02:00 00:00
Maximum _ 11,3 C 85 % 1013,5 hPa 0,3 l/m 2,2 km/h
W-SW (1 Bft)
- - 0 min 0,000 mm 2,0 UV-I 155 W/m 6,2 C 11,3 C 7,9 km/h
W-SW (2 Bft)
0,00 %
Durchschnitt _ 8,9 C 79 % 1010,5 hPa #0,3 l/m 0,1 km/h (0 Bft) W-SW - #0 min. #0,000 mm 1,4 UV-I 83 W/m 5,4 C 8,9 C 0,6 km/h (0 Bft) 0,00 %